Home > Weather > Harrisburg > Past weeks

Flag for USA Past Weather in Harrisburg, Pennsylvania, USA — Yesterday and Last 2 Weeks

Now
67 °F

Clear.


Feels Like: 67 °F
Forecast: 65 / 82 °F
Wind: 3 mph from Southwest

Location: Capital City Airport

Current Time: Jul 1, 2016 at 4:09:53 AM

Latest Report: Jul 1, 2016 at 2:56 AM


Visibility: 10 mi

Pressure: 29.98 "Hg

Humidity: 76%

Dew Point: 59 °F

Location of HarrisburgLocation

Past Weather in Harrisburg — Graph

°F

Harrisburg Temperature Yesterday

Maximum temperature yesterday: 83 °F (at 4:56 PM)
Minimum temperature yesterday: 62 °F (at 4:56 AM)
Average temperature yesterday: 73 °F

High & Low Weather Summary for the Past Weeks

 TemperatureHumidityPressure
High90 °F (Jun 20, 2:56 PM)94% (Jun 25, 2:56 AM)30.34 "Hg (Jun 25, 2:56 AM)
Low58 °F (Jun 18, 4:56 AM)22% (Jun 18, 2:56 PM)29.71 "Hg (Jun 16, 4:56 PM)
Average75 °F61%30.01 "Hg
* Reported Jun 16 2:56 AM — Jul 1 2:56 AM, Harrisburg, Weather by CustomWeather, © 2016

Note: Actual official high and low records may vary slightly from our data, if they occured in-between our weather recording intervals... More about our weather records

Advertising

Harrisburg Weather History for the Previous 24 Hours

Scroll right to see more
 ConditionsComfort  
Time TempWeatherWind HumidityBarometerVisibility
2:56 AM
Fri, Jul 1
67 °FClear.3 mph76%29.98 "Hg10 mi
1:56 AM71 °FPassing clouds.No wind66%29.99 "Hg10 mi
12:56 AM69 °FClear.5 mph66%30.00 "Hg10 mi
11:56 PM
Thu, Jun 30
69 °FClear.No wind63%30.01 "Hg10 mi
10:56 PM70 °FClear.3 mph61%30.00 "Hg10 mi
9:56 PM72 °FClear.No wind55%30.01 "Hg10 mi
8:56 PM76 °FSunny.6 mph45%30.00 "Hg10 mi
7:56 PM79 °FSunny.6 mph44%30.00 "Hg10 mi
6:56 PM81 °FPassing clouds.6 mph39%29.99 "Hg10 mi
5:56 PM83 °FSunny.9 mph36%29.98 "Hg10 mi
4:56 PM83 °FPassing clouds.8 mph37%30.00 "Hg10 mi
3:56 PM82 °FScattered clouds.3 mph37%30.01 "Hg10 mi
2:56 PM82 °FPartly sunny.6 mph41%30.01 "Hg10 mi
1:56 PM80 °FScattered clouds.5 mph39%30.02 "Hg10 mi
12:56 PM80 °FSunny.No wind41%30.03 "Hg10 mi
11:56 AM77 °FBroken clouds.5 mph48%30.05 "Hg10 mi
10:56 AM76 °FPassing clouds.No wind52%30.06 "Hg10 mi
9:56 AM74 °FSunny.No wind56%30.06 "Hg10 mi
8:56 AM72 °FSunny.3 mph55%30.06 "Hg10 mi
7:56 AM68 °FSunny.6 mph65%30.05 "Hg10 mi
6:56 AM65 °FSunny.N/A68%30.04 "Hg10 mi
5:56 AM62 °FClear.5 mph75%30.04 "Hg10 mi
4:56 AM62 °FClear.7 mph75%30.03 "Hg10 mi
Weather by CustomWeather, © 2016

See weather overviewHow to use our weather pages